�N����,����,����,����,����,�C��,���x,�~����,�S�V����,�ő�u�ԕ���,,,
,,,,,,,,,����,����,����,�N��
yyyy/mm/dd,hh:mm:ss,(16),16����,m/s,��,%,mm,KW/�u,(16),16����,m/s,Time
2015/2/1,1:00:00,14,�k��,5,-2.3,59.7,0,0,13,���k��,9.9,4
2015/2/1,2:00:00,14,�k��,3.3,-2.6,56.7,0,0,14,�k��,8.2,4
2015/2/1,3:00:00,14,�k��,3.5,-2.3,53.8,0,0,13,���k��,7,56
2015/2/1,4:00:00,14,�k��,3.8,-2.7,53.6,0,0,16,�k,8.7,8
2015/2/1,5:00:00,14,�k��,3.9,-2.3,49.5,0,0,14,�k��,9.1,45
2015/2/1,6:00:00,13,���k��,5,-2,48.8,0,0,13,���k��,12,33
2015/2/1,7:00:00,13,���k��,4.2,-1.9,46.3,0,0.01,11,���쐼,11.6,21
2015/2/1,8:00:00,13,���k��,5.8,-1.3,43.5,0,0.16,16,�k,10,54
2015/2/1,9:00:00,13,���k��,5.7,-1.6,45.3,0,0.21,13,���k��,12.1,6
2015/2/1,10:00:00,13,���k��,5.9,-1.3,43.1,0,0.27,10,�쐼,11.9,58
2015/2/1,11:00:00,12,��,7.6,-1.3,46.9,0,0.31,1,�k�k��,14.9,50
2015/2/1,12:00:00,13,���k��,6.8,-1,43.3,0,0.38,2,�k��,16.2,0
2015/2/1,13:00:00,13,���k��,7.4,-0.6,41.7,0,0.65,12,��,14.9,14
2015/2/1,14:00:00,12,��,7.6,-0.9,46.2,0,0.45,8,��,15.7,18
2015/2/1,15:00:00,12,��,7.2,-0.9,46.2,0,0.27,13,���k��,15.2,20
2015/2/1,16:00:00,12,��,6.8,-1.4,50.7,0,0.16,12,��,14.1,19
2015/2/1,17:00:00,12,��,5.6,-1.9,51.6,0,0.02,10,�쐼,13.1,25
2015/2/1,18:00:00,12,��,5.8,-2.2,50.6,0,0,14,�k��,13.2,55
2015/2/1,19:00:00,12,��,5.9,-2.5,50.4,0,0,11,���쐼,12.3,34
2015/2/1,20:00:00,13,���k��,3.9,-3.1,51.4,0,0,11,���쐼,10,5
2015/2/1,21:00:00,13,���k��,4.8,-3,50.2,0,0,1,�k�k��,9.4,58
2015/2/1,22:00:00,12,��,5.4,-3.3,50,0,0,4,��,9.9,4
2015/2/1,23:00:00,12,��,5.6,-3.4,49.5,0,0,3,���k��,12,40
2015/2/1,0:00:00,12,��,6.1,-3.2,50.1,0,0,13,���k��,12.3,28
2015/2/2,1:00:00,11,���쐼,8,-3.2,53.4,0,0,3,���k��,14.8,56
2015/2/2,2:00:00,12,��,4.6,-3.2,50.5,0,0,11,���쐼,17.2,20
2015/2/2,3:00:00,13,���k��,6,-3.3,51,0,0,13,���k��,14,16
2015/2/2,4:00:00,13,���k��,7.3,-3.5,55.3,0,0,13,���k��,15.9,59
2015/2/2,5:00:00,13,���k��,7.2,-3.5,55.8,0,0,12,��,18.6,3
2015/2/2,6:00:00,13,���k��,8.2,-3.6,58,0,0,13,���k��,16.8,3
2015/2/2,7:00:00,12,��,6.7,-3.2,53.9,0,0.01,1,�k�k��,16.4,4
2015/2/2,8:00:00,13,���k��,7.1,-3.1,51,0,0.07,9,��쐼,16.9,7
2015/2/2,9:00:00,13,���k��,7.4,-2.9,50.3,0,0.18,10,�쐼,15.9,51
2015/2/2,10:00:00,13,���k��,7.2,-1.9,44.4,0,0.4,13,���k��,16.2,8
2015/2/2,11:00:00,13,���k��,7.2,-1.3,37.4,0,0.52,12,��,14.8,54
2015/2/2,12:00:00,12,��,7.4,-0.9,34.3,0,0.61,14,�k��,14,40
2015/2/2,13:00:00,13,���k��,7.4,-0.9,37,0,0.54,14,�k��,14.6,59
2015/2/2,14:00:00,13,���k��,7,-0.9,38.2,0,0.53,11,���쐼,13.8,0
2015/2/2,15:00:00,14,�k��,7,-1.1,39.2,0,0.38,3,���k��,15,17
2015/2/2,16:00:00,14,�k��,6.1,-1.6,45.4,0,0.21,13,���k��,13.7,21
2015/2/2,17:00:00,13,���k��,6.8,-2.4,47,0,0.04,15,�k�k��,11.8,39
2015/2/2,18:00:00,13,���k��,6.3,-3.1,51.4,0,0,14,�k��,12.3,3
2015/2/2,19:00:00,13,���k��,4.8,-3.6,52.8,0,0,7,��쓌,11.1,24
2015/2/2,20:00:00,14,�k��,5.2,-3.9,51.7,0,0,16,�k,10.6,59
2015/2/2,21:00:00,16,�k,5.3,-4.6,52.6,0,0,14,�k��,10.4,1
2015/2/2,22:00:00,15,�k�k��,4.4,-5,53.1,0,0,16,�k,9.9,45
2015/2/2,23:00:00,15,�k�k��,4.4,-5.4,52.4,0,0,16,�k,10.2,16
2015/2/2,0:00:00,16,�k,5.2,-5.3,49.8,0,0,16,�k,9.3,35
2015/2/3,1:00:00,1,�k�k��,3.9,-5.9,54.1,0,0,1,�k�k��,10,9
2015/2/3,2:00:00,15,�k�k��,2.6,-6.9,59,0,0,1,�k�k��,7.4,11
2015/2/3,3:00:00,14,�k��,2.8,-7.1,59.6,0,0,13,���k��,7.4,7
2015/2/3,4:00:00,10,�쐼,1.2,-10.7,68.7,0,0,16,�k,6.7,17
2015/2/3,5:00:00,10,�쐼,1.1,-14.2,76.2,0,0,12,��,2.9,40
2015/2/3,6:00:00,12,��,3.5,-11.4,71.6,0,0,1,�k�k��,5,59
2015/2/3,7:00:00,11,���쐼,2.1,-13.7,77.4,0,0.01,1,�k�k��,5.4,0
2015/2/3,8:00:00,12,��,2.5,-11.2,70.6,0,0.15,11,���쐼,3.1,52
2015/2/3,9:00:00,12,��,2.1,-10.4,65.4,0,0.34,12,��,3.2,17
2015/2/3,10:00:00,12,��,3.6,-6.8,53.7,0,0.5,11,���쐼,5.3,45
2015/2/3,11:00:00,12,��,3.4,-5.8,51.1,0,0.6,12,��,5.2,1
2015/2/3,12:00:00,12,��,2.5,-4.6,50,0,0.64,12,��,5,41
2015/2/3,13:00:00,13,���k��,2.6,-3.3,40.2,0,0.63,13,���k��,4.1,50
2015/2/3,14:00:00,14,�k��,3.1,-2.9,39.8,0,0.55,14,�k��,5.4,43
2015/2/3,15:00:00,1,�k�k��,2.7,-3,46.2,0,0.41,1,�k�k��,4.8,41
2015/2/3,16:00:00,2,�k��,2.8,-4.5,54,0,0.22,3,���k��,4.4,46
2015/2/3,17:00:00,2,�k��,2.5,-5.7,56.8,0,0.04,1,�k�k��,4.2,23
2015/2/3,18:00:00,14,�k��,1.3,-7.9,62.5,0,0,1,�k�k��,3.2,5
2015/2/3,19:00:00,16,�k,1.2,-12,68.4,0,0,12,��,2.4,17
2015/2/3,20:00:00,16,�k,2.2,-9.7,70.4,0,0,1,�k�k��,3.4,57
2015/2/3,21:00:00,13,���k��,1.2,-14.6,76.6,0,0,1,�k�k��,4.1,0
2015/2/3,22:00:00,12,��,2.2,-15.6,80.1,0,0,13,���k��,2.7,53
2015/2/3,23:00:00,12,��,2.6,-15.7,82.7,0,0,13,���k��,3.5,54
2015/2/3,0:00:00,12,��,2.3,-18.1,83.3,0,0,10,�쐼,3.3,0
2015/2/4,1:00:00,13,���k��,2.5,-16,77.4,0,0,1,�k�k��,3.8,35
2015/2/4,2:00:00,13,���k��,3.2,-15.5,80.6,0,0,4,��,4.1,55
2015/2/4,3:00:00,12,��,2.3,-17.7,85.6,0,0,13,���k��,4.4,37
2015/2/4,4:00:00,13,���k��,2.5,-15.8,89.4,0,0,2,�k��,4.3,14
2015/2/4,5:00:00,13,���k��,3.5,-17.2,81.2,0,0,12,��,4.6,57
2015/2/4,6:00:00,12,��,2.4,-19.4,79.5,0,0,7,��쓌,4.2,0
2015/2/4,7:00:00,13,���k��,2.6,-16.6,82.3,0,0.02,2,�k��,3.8,51
2015/2/4,8:00:00,13,���k��,3.2,-15.2,77.8,0,0.15,6,�쓌,4.6,43
2015/2/4,9:00:00,13,���k��,2.3,-12.7,70.2,0,0.35,5,���쓌,4.3,24
2015/2/4,10:00:00,13,���k��,2.9,-10.2,57.3,0,0.51,11,���쐼,4.5,48
2015/2/4,11:00:00,13,���k��,2.4,-8,51,0,0.61,10,�쐼,4.4,52
2015/2/4,12:00:00,13,���k��,2.3,-6.6,45.6,0,0.65,13,���k��,4.2,49
2015/2/4,13:00:00,16,�k,0.7,-5,46.6,0,0.63,16,�k,3.6,15
2015/2/4,14:00:00,13,���k��,2,-4.6,37.5,0,0.55,6,�쓌,3.5,59
2015/2/4,15:00:00,13,���k��,2.4,-4.6,32.1,0,0.41,3,���k��,4,49
2015/2/4,16:00:00,12,��,2.3,-7.6,51.6,0,0.21,3,���k��,3.9,0
2015/2/4,17:00:00,13,���k��,2.5,-8.2,51.5,0,0.04,1,�k�k��,4.8,42
2015/2/4,18:00:00,13,���k��,3.3,-8.9,53.4,0,0,12,��,5.3,53
2015/2/4,19:00:00,13,���k��,2.5,-10.2,56.5,0,0,13,���k��,5.7,33
2015/2/4,20:00:00,13,���k��,2.2,-11,55.1,0,0,12,��,3.8,43
2015/2/4,21:00:00,13,���k��,1.4,-15.5,75.1,0,0,12,��,3.7,34
2015/2/4,22:00:00,12,��,2.5,-16.6,79.3,0,0,12,��,3.4,50
2015/2/4,23:00:00,13,���k��,3.7,-13.2,69.7,0,0,14,�k��,25.2,11
2015/2/4,0:00:00,13,���k��,3.3,-13.4,73.1,0,0,13,���k��,4.7,1
2015/2/5,1:00:00,13,���k��,3.6,-15.1,78.3,0,0,12,��,4.8,45
2015/2/5,2:00:00,13,���k��,2.2,-15.9,78.2,0,0,16,�k,4.7,7
2015/2/5,3:00:00,13,���k��,2.7,-17.5,78.5,0,0,1,�k�k��,4.3,38
2015/2/5,4:00:00,12,��,2.8,-14.3,75.7,0,0,12,��,4.1,57
2015/2/5,5:00:00,12,��,2.4,-13.6,71.9,0,0,13,���k��,4.3,50
2015/2/5,6:00:00,13,���k��,2.4,-13.9,74.4,0,0,12,��,4.1,22
2015/2/5,7:00:00,11,���쐼,2.1,-13.5,75.3,0,0.02,9,��쐼,4.5,7
2015/2/5,8:00:00,11,���쐼,2.4,-11.9,67.2,0,0.15,11,���쐼,5.1,23
2015/2/5,9:00:00,13,���k��,2.7,-8.2,59.8,0,0.35,13,���k��,4.7,53
2015/2/5,10:00:00,12,��,3.9,-6.7,54.4,0,0.51,1,�k�k��,7,47
2015/2/5,11:00:00,12,��,3.2,-5.1,47.8,0,0.61,12,��,5.9,50
2015/2/5,12:00:00,13,���k��,3.1,-4.4,41.4,0,0.65,14,�k��,6,34
2015/2/5,13:00:00,13,���k��,2.6,-3.7,43.5,0,0.63,14,�k��,4.6,39
2015/2/5,14:00:00,11,���쐼,0.4,-3,42.6,0,0.55,10,�쐼,3.5,2
2015/2/5,15:00:00,7,��쓌,0.7,-2,46.7,0,0.4,8,��,1.9,46
2015/2/5,16:00:00,12,��,1,-5.7,56.2,0,0.16,12,��,2.4,15
2015/2/5,17:00:00,14,�k��,0.4,-9.3,53.6,0,0.05,13,���k��,1.5,49
2015/2/5,18:00:00,13,���k��,0.3,-10.4,70.1,0,0,13,���k��,1.8,21
2015/2/5,19:00:00,12,��,2.4,-11.1,69.7,0,0,13,���k��,3.5,40
2015/2/5,20:00:00,12,��,1.4,-11.8,73.5,0,0,12,��,3.3,0
2015/2/5,21:00:00,13,���k��,2.5,-10.3,62.6,0,0,10,�쐼,4,11
2015/2/5,22:00:00,13,���k��,3,-14.3,64.4,0,0,13,���k��,5.4,39
2015/2/5,23:00:00,13,���k��,3,-11.7,66.6,0,0,13,���k��,4.6,52
2015/2/5,0:00:00,13,���k��,2.9,-12.6,70.9,0,0,11,���쐼,5.2,47
2015/2/6,1:00:00,13,���k��,1.4,-12.8,74.5,0,0,13,���k��,3.7,19
2015/2/6,2:00:00,12,��,1.6,-13.1,77.1,0,0,12,��,4.5,40
2015/2/6,3:00:00,12,��,0.4,-12.2,78.4,0,0,11,���쐼,3.2,14
2015/2/6,4:00:00,12,��,3.5,-12.7,80.6,0,0,13,���k��,6.1,56
2015/2/6,5:00:00,12,��,4.6,-11.9,80.3,0,0,11,���쐼,7.3,10
2015/2/6,6:00:00,12,��,5,-11.6,79.6,0,0,13,���k��,8.4,58
2015/2/6,7:00:00,12,��,4.9,-10.9,80.4,0,0,1,�k�k��,8.5,14
2015/2/6,8:00:00,12,��,3.8,-8.5,77.8,0,0.08,4,��,6.7,3
2015/2/6,9:00:00,13,���k��,4.4,-6.5,70.2,0,0.39,13,���k��,8,45
2015/2/6,10:00:00,13,���k��,3.1,-5,68.7,0,0.44,1,�k�k��,7.5,0
2015/2/6,11:00:00,13,���k��,3.7,-3.6,61.4,0,0.55,13,���k��,7.5,8
2015/2/6,12:00:00,13,���k��,2.7,-2.2,61.5,0,0.62,8,��,6.5,13
2015/2/6,13:00:00,14,�k��,2.8,-1.1,56.5,0,0.64,14,�k��,5.8,20
2015/2/6,14:00:00,13,���k��,2.6,-0.3,56.4,0,0.59,13,���k��,4.9,12
2015/2/6,15:00:00,14,�k��,1.2,0.4,55.2,0,0.4,13,���k��,4.1,4
2015/2/6,16:00:00,12,��,2.3,-2.5,65.1,0,0.22,12,��,2.7,59
2015/2/6,17:00:00,12,��,1.4,-5,72.7,0,0.05,13,���k��,3.2,6
2015/2/6,18:00:00,12,��,2.3,-5.8,72.4,0,0,13,���k��,3.5,18
2015/2/6,19:00:00,13,���k��,2.7,-4.6,72.6,0,0,13,���k��,4.6,23
2015/2/6,20:00:00,12,��,4,-5,72.9,0,0,9,��쐼,5.5,54
2015/2/6,21:00:00,13,���k��,3.6,-5,75.1,0,0,16,�k,6.3,59
2015/2/6,22:00:00,13,���k��,2.6,-6,77.1,0,0,2,�k��,6.5,4
2015/2/6,23:00:00,13,���k��,2.5,-8.1,75.4,0,0,12,��,4.3,33
2015/2/6,0:00:00,13,���k��,2.8,-10.2,78.5,0,0,13,���k��,4,54
2015/2/7,1:00:00,14,�k��,1,-12.7,89,0,0,1,�k�k��,2.6,0
2015/2/7,2:00:00,13,���k��,1.6,-12,79.2,0,0,11,���쐼,3,44
2015/2/7,3:00:00,11,���쐼,1.7,-11.8,80.2,0,0,12,��,2.5,3
2015/2/7,4:00:00,10,�쐼,0.9,-10.4,84.4,0,0,12,��,2.9,16
2015/2/7,5:00:00,13,�É�,0.1,-12.3,75,0,0,11,���쐼,25.3,39
2015/2/7,6:00:00,10,�쐼,1,-14.4,87.8,0,0.01,10,�쐼,2.5,1
2015/2/7,7:00:00,12,��,2.5,-10.4,87.4,0,0.02,12,��,3.3,59
2015/2/7,8:00:00,12,��,2.5,-10.1,72.4,0,0.16,11,���쐼,3.8,31
2015/2/7,9:00:00,12,��,1.6,-5.5,67.8,0,0.36,12,��,4.1,3
2015/2/7,10:00:00,14,�k��,1.8,-2.5,57.5,0,0.52,11,���쐼,3,57
2015/2/7,11:00:00,11,���쐼,1.1,-0.5,50.2,0,0.61,13,���k��,2.5,45
2015/2/7,12:00:00,5,���쓌,2.1,0.4,56.5,0,0.65,6,�쓌,3.5,56
2015/2/7,13:00:00,7,��쓌,1.7,0.6,52.2,0,0.63,6,�쓌,3.8,29
2015/2/7,14:00:00,7,��쓌,2.2,-0.3,57.9,0,0.55,7,��쓌,3.7,46
2015/2/7,15:00:00,7,��쓌,1.6,-0.4,61.3,0,0.41,7,��쓌,3.4,0
2015/2/7,16:00:00,9,��쐼,1.3,-1.8,70.6,0,0.15,8,��,2.3,41
2015/2/7,17:00:00,10,�쐼,1.5,-2.6,78.9,0,0.02,9,��쐼,2.3,21
2015/2/7,18:00:00,12,��,1.9,-4.7,78.4,0,0,10,�쐼,2.4,9
2015/2/7,19:00:00,12,��,1.4,-4.9,83.6,0,0,12,��,2.5,38
2015/2/7,20:00:00,12,��,0.5,-7.5,83.8,0,0,12,��,2.5,5
2015/2/7,21:00:00,12,��,1.1,-8.8,91.2,0,0,12,��,1.9,56
2015/2/7,22:00:00,12,��,1.9,-6.9,88.5,0,0,3,���k��,4.1,38
2015/2/7,23:00:00,12,��,1.1,-8.3,91.3,0,0,12,��,2.7,43
2015/2/7,0:00:00,12,��,1.8,-7.7,88.4,0,0,13,���k��,2.9,36
2015/2/8,1:00:00,13,���k��,2,-7.8,95,0,0,12,��,3.3,42
2015/2/8,2:00:00,13,���k��,1.5,-5.2,93.5,0,0,12,��,2.7,58
2015/2/8,3:00:00,14,�k��,1.9,-4.8,89.2,0,0,13,���k��,4,12
2015/2/8,4:00:00,13,���k��,1.5,-5,96.6,0,0,13,���k��,4.5,44
2015/2/8,5:00:00,13,���k��,1.5,-5,99,0,0,14,�k��,2.8,18
2015/2/8,6:00:00,13,���k��,1.8,-5.6,98.5,0,0,13,���k��,2.7,3
2015/2/8,7:00:00,13,���k��,2.4,-5.2,98.4,0,0.01,13,���k��,3.6,57
2015/2/8,8:00:00,13,���k��,1.3,-4.8,98.5,0,0.08,13,���k��,3.9,13
2015/2/8,9:00:00,12,��,0.8,-4.2,98.4,0,0.19,14,�k��,7.2,24
2015/2/8,10:00:00,15,�k�k��,0.3,-3.2,96.2,0,0.16,14,�k��,2.9,31
2015/2/8,11:00:00,1,�k�k��,1.1,-0.9,95.3,0,0.15,11,���쐼,2,1
2015/2/8,12:00:00,7,��쓌,4.4,1.5,92.9,0,0.12,7,��쓌,10,57
2015/2/8,13:00:00,7,��쓌,2,1.2,94,0,0.08,7,��쓌,7.7,3
2015/2/8,14:00:00,6,�쓌,3.7,0.5,97.5,0.5,0.12,6,�쓌,7.3,49
2015/2/8,15:00:00,5,���쓌,2.7,0.2,99.6,1,0.08,7,��쓌,6.5,0
2015/2/8,16:00:00,3,���k��,1.9,0.1,100,0.5,0.03,5,���쓌,3.6,2
2015/2/8,17:00:00,2,�k��,2.5,0.1,100,0,0.01,2,�k��,4,51
2015/2/8,18:00:00,15,�k�k��,2.7,0.4,100,0,0,15,�k�k��,4.7,59
2015/2/8,19:00:00,13,���k��,3.2,0.2,100,1.5,0,14,�k��,6,21
2015/2/8,20:00:00,13,���k��,3.3,-0.3,97.9,0,0,12,��,7.7,19
2015/2/8,21:00:00,13,���k��,2,-0.2,97.1,1,0,13,���k��,4.9,28
2015/2/8,22:00:00,14,�k��,0.9,-0.6,98.2,2,0,14,�k��,4.1,1
2015/2/8,23:00:00,13,���k��,1.9,-0.4,97.5,1,0,13,���k��,3.1,59
2015/2/8,0:00:00,10,�쐼,1.6,-0.8,98.5,1,0,12,��,3,39
2015/2/9,1:00:00,11,���쐼,1.9,-2.8,100,1.5,0,4,��,25.2,26
2015/2/9,2:00:00,13,���k��,0.5,-2.4,100,1,0,12,��,3.1,41
2015/2/9,3:00:00,10,�쐼,0.7,-6.7,97.4,1,0,11,���쐼,7.1,24
2015/2/9,4:00:00,12,��,1.6,-5.2,99.2,0,0,12,��,25.4,20
2015/2/9,5:00:00,11,���쐼,5.4,-2.4,100,0,0,12,��,8,58
2015/2/9,6:00:00,8,��,2.2,-3.7,92.9,0,0,11,���쐼,11.1,1
2015/2/9,7:00:00,9,��쐼,4.7,-1.3,72.6,0,0.01,9,��쐼,10,56
2015/2/9,8:00:00,10,�쐼,3.2,-2.8,83.3,0,0.05,10,�쐼,8.8,6
2015/2/9,9:00:00,10,�쐼,7.9,-2.6,80.6,0,0.24,10,�쐼,12.6,51
2015/2/9,10:00:00,10,�쐼,7.7,-3.9,66.4,0,0.4,12,��,14.4,3
2015/2/9,11:00:00,10,�쐼,6.4,-3.6,50.8,0,0.51,12,��,11.5,7
2015/2/9,12:00:00,11,���쐼,5.8,-3.4,45.3,0,0.48,10,�쐼,11.9,29
2015/2/9,13:00:00,10,�쐼,6.3,-3.5,43,0.5,0.48,11,���쐼,9.5,41
2015/2/9,14:00:00,11,���쐼,6,-4.1,48.8,0,0.29,11,���쐼,11.8,23
2015/2/9,15:00:00,10,�쐼,4.7,-4.3,51.4,0,0.24,10,�쐼,13.4,8
2015/2/9,16:00:00,9,��쐼,3.1,-5.6,71.4,0,0.11,10,�쐼,8.9,36
2015/2/9,17:00:00,8,��,3.7,-6,88.4,0,0.02,9,��쐼,7.6,49
2015/2/9,18:00:00,8,��,3.7,-6.7,90.1,0,0,8,��,6.7,52
2015/2/9,19:00:00,9,��쐼,3.9,-6.5,88.9,0,0,9,��쐼,7.6,11
2015/2/9,20:00:00,8,��,3.1,-6.8,94.5,0,0,9,��쐼,7.2,22
2015/2/9,21:00:00,7,��쓌,2.5,-7,94.8,0,0,7,��쓌,5.8,31
2015/2/9,22:00:00,6,�쓌,2.3,-7.1,94.3,0,0,7,��쓌,4.1,50
2015/2/9,23:00:00,7,��쓌,2.5,-7.1,90.9,0,0,11,���쐼,8.3,27
2015/2/9,0:00:00,8,��,1.9,-7.8,90.8,0,0,7,��쓌,5.6,16
2015/2/10,1:00:00,7,��쓌,1.5,-7.6,92.6,0,0,8,��,4.6,1
2015/2/10,2:00:00,7,��쓌,2.2,-7.4,93.4,0,0,6,�쓌,3.3,26
2015/2/10,3:00:00,7,��쓌,1.5,-7.6,93.6,0,0,7,��쓌,3.6,24
2015/2/10,4:00:00,5,���쓌,3.3,-6.7,96.1,0,0,7,��쓌,6.6,56
2015/2/10,5:00:00,5,���쓌,3,-6.9,95.8,0,0,5,���쓌,6.7,28
2015/2/10,6:00:00,6,�쓌,3.1,-7,92.8,0,0,6,�쓌,6,45
2015/2/10,7:00:00,6,�쓌,2.5,-6.9,91.3,0,0.01,7,��쓌,6.5,3
2015/2/10,8:00:00,7,��쓌,1.9,-6,92.5,0,0.06,6,�쓌,3.7,0
2015/2/10,9:00:00,7,��쓌,1.4,-6.2,93.2,0,0.09,8,��,4.8,19
2015/2/10,10:00:00,5,���쓌,0.8,-5.6,96,0,0.08,13,���k��,3.5,26
2015/2/10,11:00:00,6,�쓌,2.8,-5.4,86.8,0,0.13,7,��쓌,5.5,57
2015/2/10,12:00:00,8,��,2.6,-4,75.5,0,0.28,8,��,5.5,33
2015/2/10,13:00:00,9,��쐼,3.1,-4.5,72.8,0,0.57,9,��쐼,6,10
2015/2/10,14:00:00,13,���k��,0.8,-5,74.1,0.5,0.37,9,��쐼,5.5,0
2015/2/10,15:00:00,9,��쐼,3.3,-5.2,73.8,0.5,0.23,10,�쐼,7,39
2015/2/10,16:00:00,11,���쐼,2.9,-5.7,71.8,0.5,0.13,12,��,5,54
2015/2/10,17:00:00,10,�쐼,3.5,-7.7,71.9,0,0.02,9,��쐼,7.5,20
2015/2/10,18:00:00,14,�k��,0.5,-13.9,89.6,0,0,10,�쐼,4,0
2015/2/10,19:00:00,11,���쐼,1.9,-16.4,92.7,0,0,10,�쐼,2.8,59
2015/2/10,20:00:00,11,���쐼,2.2,-13.2,84.3,0,0,10,�쐼,4.2,31
2015/2/10,21:00:00,11,���쐼,1.2,-13.4,88.3,0,0,12,��,2.7,6
2015/2/10,22:00:00,10,�쐼,2.2,-12,84.6,0,0,8,��,3.8,47
2015/2/10,23:00:00,12,��,2.5,-16,88.6,0,0,10,�쐼,3.1,1
2015/2/10,0:00:00,12,��,2.2,-17.7,90.8,0,0,12,��,3.5,20
2015/2/11,1:00:00,11,���쐼,2.7,-17.9,90.7,0,0,12,��,4.6,59
2015/2/11,2:00:00,12,��,2.9,-16,91.2,0,0,12,��,4.8,13
2015/2/11,3:00:00,12,��,1.3,-11.9,93.9,0,0,13,���k��,3,1
2015/2/11,4:00:00,14,�k��,0.9,-15.8,88.8,0,0,10,�쐼,4.6,4
2015/2/11,5:00:00,12,��,1.4,-15.1,90.6,0,0,11,���쐼,8,12
2015/2/11,6:00:00,12,��,1.8,-18.3,88.8,0,0,11,���쐼,3.9,13
2015/2/11,7:00:00,12,��,2.3,-16.4,91.6,0,0.02,12,��,3.9,55
2015/2/11,8:00:00,12,��,1.8,-15.8,90.8,0,0.18,11,���쐼,3.8,1
2015/2/11,9:00:00,12,��,2.5,-12.7,91.8,0,0.38,12,��,3.5,39
2015/2/11,10:00:00,12,��,0.3,-9.5,80.2,0,0.55,11,���쐼,3.3,43
2015/2/11,11:00:00,2,�k��,1,-4.5,83.5,0,0.64,3,���k��,2.2,42
2015/2/11,12:00:00,3,���k��,2.5,-4.1,84.2,0.5,0.68,2,�k��,3.7,50
2015/2/11,13:00:00,2,�k��,1.8,-2.1,82.4,0.5,0.66,2,�k��,3.6,27
2015/2/11,14:00:00,8,��,1,0.1,69,1,0.58,9,��쐼,3.4,59
2015/2/11,15:00:00,9,��쐼,3.7,-0.2,62,0,0.18,10,�쐼,7.4,58
2015/2/11,16:00:00,8,��,3.2,-0.8,69.4,0.5,0.16,7,��쓌,5.9,55
2015/2/11,17:00:00,8,��,4,-1.4,80.4,0,0.03,7,��쓌,7.6,20
2015/2/11,18:00:00,8,��,2.8,-1.4,78.8,0,0,9,��쐼,6.3,2
2015/2/11,19:00:00,8,��,1.6,-2,82.3,0,0,7,��쓌,5.7,23
2015/2/11,20:00:00,9,��쐼,1,-9.3,98.7,0,0,9,��쐼,2.2,36
2015/2/11,21:00:00,12,��,1.5,-12.4,94.1,0,0,11,���쐼,2.7,14
2015/2/11,22:00:00,11,���쐼,2.7,-12.9,92.2,0,0,12,��,3.4,59
2015/2/11,23:00:00,12,��,1.4,-10.9,95.1,0,0,12,��,3.8,7
2015/2/11,0:00:00,12,��,2.9,-10.2,94.9,0,0,13,���k��,3.8,52
2015/2/12,1:00:00,13,���k��,1.9,-8.5,97.1,0,0,13,���k��,4.3,3
2015/2/12,2:00:00,12,��,3.1,-7.9,94.4,0,0,13,���k��,4.3,55
2015/2/12,3:00:00,13,���k��,3.2,-6.9,82.4,0,0,1,�k�k��,5.2,55
2015/2/12,4:00:00,12,��,1.7,-8.6,87.6,0,0,13,���k��,4.4,6
2015/2/12,5:00:00,13,���k��,2.4,-7.2,84.4,0,0,13,���k��,3.6,57
2015/2/12,6:00:00,13,���k��,2.1,-7.5,85.1,0,0,12,��,3.9,4
2015/2/12,7:00:00,13,���k��,3.3,-6.5,85.7,0,0.01,13,���k��,4.7,49
2015/2/12,8:00:00,14,�k��,2.8,-6.7,86.6,0,0.08,14,�k��,4.3,12
2015/2/12,9:00:00,14,�k��,2.2,-5.2,83.9,0,0.17,14,�k��,4.6,20
2015/2/12,10:00:00,14,�k��,2.1,-3.4,83.1,0,0.33,14,�k��,3.7,47
2015/2/12,11:00:00,1,�k�k��,0.5,-1.6,88.6,0,0.43,13,���k��,2.8,1
2015/2/12,12:00:00,5,���쓌,1.2,-0.5,89.6,0.5,0.61,5,���쓌,3.2,59
2015/2/12,13:00:00,5,���쓌,1.8,-1.2,89.5,0.5,0.44,5,���쓌,3.8,0
2015/2/12,14:00:00,5,���쓌,0.7,-1.2,90,0,0.39,6,�쓌,2.8,6
2015/2/12,15:00:00,5,���쓌,1.1,-1.4,87.7,0.5,0.33,5,���쓌,1.8,9
2015/2/12,16:00:00,5,���쓌,1.5,-3.2,91.8,0,0.21,5,���쓌,2.3,5
2015/2/12,17:00:00,2,�É�,0,-6.8,97.6,0.5,0.04,2,�k��,2.2,45
2015/2/12,18:00:00,12,��,0.4,-8.9,94.2,0,0,13,���k��,2.5,55
2015/2/12,19:00:00,12,��,1.7,-8.8,95,0,0,14,�k��,2.6,4
2015/2/12,20:00:00,14,�k��,2.3,-9.4,95,0,0,14,�k��,3,56
2015/2/12,21:00:00,13,���k��,0.9,-8.6,97.1,0,0,14,�k��,2.6,0
2015/2/12,22:00:00,14,�k��,2.2,-7.9,95.9,0,0,14,�k��,3.4,31
2015/2/12,23:00:00,13,���k��,1.4,-9.4,95.8,0,0,14,�k��,2.5,1
2015/2/12,0:00:00,12,��,1.3,-9,95.9,0,0,13,���k��,2.5,18
2015/2/13,1:00:00,13,���k��,1.9,-8.8,96.6,0,0,11,���쐼,7.2,18
2015/2/13,2:00:00,14,�k��,2.8,-6.8,97.4,0,0,14,�k��,4.4,43
2015/2/13,3:00:00,14,�k��,2.2,-5.5,98,0,0,13,���k��,5.3,21
2015/2/13,4:00:00,13,���k��,2.3,-6.5,97.4,0,0,16,�k,3.8,44
2015/2/13,5:00:00,14,�k��,3.4,-5.9,97.7,0,0,13,���k��,4.7,56
2015/2/13,6:00:00,14,�k��,3.4,-5.6,98,0,0,14,�k��,4.9,53
2015/2/13,7:00:00,14,�k��,2.5,-4.9,98.4,0,0.01,1,�k�k��,4.3,23
2015/2/13,8:00:00,14,�k��,2.3,-4.6,98.7,0,0.05,14,�k��,5.3,20
2015/2/13,9:00:00,14,�k��,3.8,-4.7,98.4,0,0.16,6,�쓌,6.2,57
2015/2/13,10:00:00,13,���k��,3.7,-4.8,97.9,0,0.1,14,�k��,5.5,13
2015/2/13,11:00:00,14,�k��,2.7,-4.4,94.4,0,0.14,13,���k��,5.5,1
2015/2/13,12:00:00,14,�k��,2.7,-3.5,93.9,0,0.2,14,�k��,5.3,16
2015/2/13,13:00:00,14,�k��,1.5,-3.1,94.2,0.5,0.19,14,�k��,4,15
2015/2/13,14:00:00,1,�k�k��,2.8,-2.4,95,0,0.15,2,�k��,4.9,34
2015/2/13,15:00:00,1,�k�k��,2.3,-2.4,95.9,0,0.11,2,�k��,5.2,6
2015/2/13,16:00:00,14,�k��,2.7,-3,95.4,0,0.09,13,���k��,4.6,48
2015/2/13,17:00:00,14,�k��,3.9,-3.3,96.6,0,0.04,13,���k��,6.1,39
2015/2/13,18:00:00,14,�k��,4.1,-3.2,96.4,0.5,0,13,���k��,7.3,52
2015/2/13,19:00:00,14,�k��,3.5,-2.9,96.5,0,0,14,�k��,6.4,54
2015/2/13,20:00:00,14,�k��,3.5,-2.8,96.8,0,0,14,�k��,6.4,56
2015/2/13,21:00:00,14,�k��,4.4,-2.7,96.6,0,0,14,�k��,8.7,59
2015/2/13,22:00:00,14,�k��,5.2,-3.1,96.1,0,0,14,�k��,10.3,22
2015/2/13,23:00:00,14,�k��,4.8,-3.2,95.5,0,0,1,�k�k��,8.6,15
2015/2/13,0:00:00,14,�k��,4.3,-2.8,93.8,0,0,13,���k��,8.6,21
2015/2/14,1:00:00,14,�k��,4,-2.5,90.8,0.5,0,15,�k�k��,8.4,45
2015/2/14,2:00:00,14,�k��,4.1,-2.5,88.8,0,0,13,���k��,8.4,46
2015/2/14,3:00:00,14,�k��,3.4,-2.8,85.3,0,0,14,�k��,8.4,2
2015/2/14,4:00:00,14,�k��,3.3,-3.2,82.5,0,0,14,�k��,7,1
2015/2/14,5:00:00,14,�k��,2.8,-2.9,74.9,0,0,14,�k��,5.2,2
2015/2/14,6:00:00,14,�k��,3.3,-2.6,73.9,0,0,14,�k��,6,53
2015/2/14,7:00:00,15,�k�k��,2.2,-2.8,72.6,0,0.01,14,�k��,6.4,4
2015/2/14,8:00:00,14,�k��,2,-2.4,68.3,0.5,0.09,13,���k��,3.7,45
2015/2/14,9:00:00,15,�k�k��,1.7,-1.5,63.5,0,0.19,16,�k,3.6,55
2015/2/14,10:00:00,14,�k��,4.1,-0.4,52.9,0,0.29,14,�k��,8.7,42
2015/2/14,11:00:00,14,�k��,6.3,-0.4,53.6,0.5,0.34,12,��,13.8,58
2015/2/14,12:00:00,14,�k��,6.4,0.2,55.4,0,0.46,14,�k��,13.1,58
2015/2/14,13:00:00,14,�k��,7.7,0.1,56.2,0,0.51,14,�k��,17.5,42
2015/2/14,14:00:00,14,�k��,6.5,0.5,54.7,0,0.47,14,�k��,16.3,7
2015/2/14,15:00:00,14,�k��,5.5,0.4,55.7,0,0.39,14,�k��,15.1,1
2015/2/14,16:00:00,14,�k��,5.4,-0.2,59,0,0.18,14,�k��,14.5,27
2015/2/14,17:00:00,14,�k��,4.7,-1.1,60.2,0,0.07,15,�k�k��,10.9,12
2015/2/14,18:00:00,14,�k��,3.4,-1.7,59.8,0,0,14,�k��,8,2
2015/2/14,19:00:00,13,���k��,2.1,-3.4,60.3,0,0,15,�k�k��,5.4,28
2015/2/14,20:00:00,12,��,3,-5.7,62.3,0,0,12,��,5.1,51
2015/2/14,21:00:00,13,���k��,3.3,-2.3,60.7,0,0,14,�k��,6,56
2015/2/14,22:00:00,11,���쐼,2.5,-4.8,68.3,0,0,13,���k��,7.9,15
2015/2/14,23:00:00,11,���쐼,2.3,-5.7,70.1,0,0,12,��,4.9,15
2015/2/14,0:00:00,10,�쐼,2.1,-6,70.9,0,0,10,�쐼,3.4,3
2015/2/15,1:00:00,12,��,2.3,-7.7,69,0,0,12,��,3.6,58
2015/2/15,2:00:00,11,���쐼,3.1,-4.6,64.5,0,0,13,���k��,5.8,54
2015/2/15,3:00:00,12,��,4.3,-3.4,66,0,0,1,�k�k��,7.7,59
2015/2/15,4:00:00,12,��,5.4,-3.3,57.5,0,0,11,���쐼,10.1,14
2015/2/15,5:00:00,13,���k��,8.1,-1.2,60.6,0,0,13,���k��,15,55
2015/2/15,6:00:00,13,���k��,9.1,-0.9,63.1,0,0,4,��,17,51
2015/2/15,7:00:00,13,���k��,9,-0.9,65.7,0,0.01,14,�k��,17.4,32
2015/2/15,8:00:00,12,��,9.8,-0.3,62.7,0,0.09,13,���k��,18.4,36
2015/2/15,9:00:00,12,��,7.5,0.9,55.5,0,0.23,10,�쐼,18.8,49
2015/2/15,10:00:00,13,���k��,5.5,1.3,58.2,0,0.36,13,���k��,15.6,8
2015/2/15,11:00:00,13,���k��,9.3,1.2,64.9,0,0.34,10,�쐼,17.9,46
2015/2/15,12:00:00,13,���k��,8.4,1.4,65.2,0,0.31,14,�k��,19,16
2015/2/15,13:00:00,14,�k��,10.7,1.2,70.3,0,0.28,14,�k��,21.8,45
2015/2/15,14:00:00,14,�k��,8.9,1,68,0,0.18,13,���k��,16.8,36
2015/2/15,15:00:00,14,�k��,8.6,1,67.9,0,0.14,13,���k��,17.6,10
2015/2/15,16:00:00,15,�k�k��,7.8,1.2,64.9,0,0.12,15,�k�k��,16.6,30
2015/2/15,17:00:00,15,�k�k��,8.1,0.9,64.3,0,0.04,6,�쓌,15.2,47
2015/2/15,18:00:00,15,�k�k��,6.5,0.8,64.2,0,0,1,�k�k��,14.9,8
2015/2/15,19:00:00,14,�k��,7.4,0.9,65.2,0,0,14,�k��,14.6,53
2015/2/15,20:00:00,14,�k��,7,0.6,66.2,0,0,15,�k�k��,16.5,21
2015/2/15,21:00:00,14,�k��,6.4,0.6,65.5,0,0,1,�k�k��,13.1,35
2015/2/15,22:00:00,14,�k��,5.8,0.8,62.8,0,0,12,��,12,14
2015/2/15,23:00:00,14,�k��,5.3,0.7,62,0,0,14,�k��,12.9,32
2015/2/15,0:00:00,14,�k��,6,0.8,59.9,0,0,15,�k�k��,11.4,25
2015/2/16,1:00:00,13,���k��,6.6,0.8,60.9,0,0,12,��,15.5,37
2015/2/16,2:00:00,14,�k��,6.7,0.4,66.5,0,0,6,�쓌,15,24
2015/2/16,3:00:00,13,���k��,7.2,0.4,66.1,0,0,11,���쐼,13.2,46
2015/2/16,4:00:00,14,�k��,6,0.4,64.5,0,0,16,�k,13.5,45
2015/2/16,5:00:00,14,�k��,7.3,0.8,64.8,0,0,14,�k��,15.4,55
2015/2/16,6:00:00,13,���k��,7.7,0.8,68.3,0,0,16,�k,16.3,3
2015/2/16,7:00:00,14,�k��,5.2,1.4,58.7,0,0.02,13,���k��,13.7,0
2015/2/16,8:00:00,14,�k��,4.4,1.6,56.7,0,0.08,14,�k��,9,31
2015/2/16,9:00:00,14,�k��,5.2,2.5,55.1,0,0.23,14,�k��,12,30
2015/2/16,10:00:00,14,�k��,6,3.4,49.8,0,0.59,12,��,12.5,4
2015/2/16,11:00:00,15,�k�k��,4.2,4,51.8,1,0.71,13,���k��,10.7,7
2015/2/16,12:00:00,14,�k��,3.9,4.1,49.7,1,0.6,15,�k�k��,9,3
2015/2/16,13:00:00,14,�k��,4.2,4.4,49.6,0,0.56,14,�k��,10.2,23
2015/2/16,14:00:00,13,���k��,4.9,4.2,51.2,0,0.5,14,�k��,11.1,38
2015/2/16,15:00:00,15,�k�k��,4.6,4.6,53,0,0.46,10,�쐼,9.7,17
2015/2/16,16:00:00,14,�k��,3.8,4.1,57.7,0,0.27,14,�k��,10.3,4
2015/2/16,17:00:00,1,�k�k��,2.1,3.1,66.4,0,0.05,14,�k��,7.4,10
2015/2/16,18:00:00,16,�k,3.2,2.2,70,0,0,2,�k��,6.1,32
2015/2/16,19:00:00,1,�k�k��,4.5,2.1,70.8,0,0,1,�k�k��,7.8,43
2015/2/16,20:00:00,1,�k�k��,3.5,1.1,74.3,0,0,1,�k�k��,7.5,5
2015/2/16,21:00:00,13,���k��,2,0.3,78.2,0,0,1,�k�k��,5.1,3
2015/2/16,22:00:00,14,�k��,2,-1,81.7,0,0,15,�k�k��,3.9,43
2015/2/16,23:00:00,14,�k��,1.7,-1.3,84.5,0,0,10,�쐼,3.9,59
2015/2/16,0:00:00,12,��,2,-4.9,91,0,0,14,�k��,3.4,22
2015/2/17,1:00:00,12,��,2.9,-3,90.5,0,0,16,�k,4.1,54
2015/2/17,2:00:00,12,��,2,-5.5,93.3,0,0,12,��,4.3,12
2015/2/17,3:00:00,13,���k��,2.3,-3.1,85.6,0,0,2,�k��,4.6,23
2015/2/17,4:00:00,14,�k��,1.6,-4.5,88.3,0,0,14,�k��,4,40
2015/2/17,5:00:00,13,���k��,1.4,-3.5,87.1,0,0,12,��,5.4,25
2015/2/17,6:00:00,12,��,2.1,-5.6,91.8,0,0,12,��,3.7,11
2015/2/17,7:00:00,13,���k��,1.3,-3.6,88.5,0,0.02,12,��,2.8,10
2015/2/17,8:00:00,14,�k��,2.1,-2.3,84.2,0,0.07,14,�k��,3.4,48
2015/2/17,9:00:00,14,�k��,2.8,-0.8,79.9,0,0.16,13,���k��,4.3,48
2015/2/17,10:00:00,14,�k��,2.2,1.2,76.5,0,0.31,1,�k�k��,3.7,0
2015/2/17,11:00:00,13,���k��,1.3,2.7,69,0,0.5,13,���k��,3.4,14
2015/2/17,12:00:00,14,�k��,0.5,3.3,66,0,0.43,12,��,2.6,34